EUTELSAT 9B (41310 NORAD) Tracking and Keplerian Element Data

This shows tracking and keplerian element data for the satellite.

Feedback or suggestion? Click here.




ElementValue
Catalog41310
NameEUTELSAT 9B
Epoch Orbit2082
Epoch Day270.14840762
Epoch Year2021
RAAN79.0073
Inclination0.0792
Eccentricity0.0005149
Argument of Perigee168.887
Mean Anonmoly180.6877
Mean Motion1.00271934
Decay Rate6.1E-07
L11 41310U 16005A 21270.14840762 .00000061 00000-0 00000+0 0 9991
L22 41310 0.0792 79.0073 0005149 168.8870 180.6877 1.00271934 20828

Live tracking and technical data element details for EUTELSAT 9B (NORAD 41310). EUTELSAT 9B can be tracked NOW for your location showing map with azimuth and elevation plus other details from your city location.

Track the satellite on the map from your city or location and see movement details for azimuth, elevation, latitude, longitude, range, height, and movement on the map or in text.







IsCatalogInMostPopularTable: catalog: 41310, numindb: 542
Update: records affected: 1



GetName: 41310 EUTELSAT 9B

Hit Count: updated at: Tue, 28 Sep 2021 15:46:56 GMT